Wind_Speed
27 26 26 27 26 26 27 27 28 28 27 26 25 26 27 26 26 27 26 25 24 24 24 25 26 25 25 25 26 26 25 26 26 26 27 26 26 26 26 26 26 26 26 25
30 29 29 28 27 28 29 29 30 30 30 28 27 28 29 30 30 29 28 27 26 26 28 28 28 28 28 28 28 28 28 28 27 27 28 27 27 27 27 27 28 28 27 26
31 30 31 31 29 30 31 32 33 33 31 31 31 30 31 31 31 31 32 31 29 29 30 30 30 30 30 31 31 31 30 30 30 29 30 29 29 29 28 28 28 28 28 27
32 32 33 31 30 31 32 33 34 34 34 32 32 32 32 33 32 32 33 32 32 31 30 31 32 33 34 34 34 34 33 33 32 31 31 30 30 30 30 30 30 29 29 29
34 33 33 31 31 32 33 34 33 34 34 34 34 35 35 35 35 34 33 35 35 34 34 34 35 35 35 36 37 37 35 34 33 32 32 32 32 32 32 33 32 32 32 31
35 35 34 32 32 33 33 35 35 35 35 35 35 36 36 36 37 37 37 37 38 38 37 37 37 36 36 37 38 36 34 35 36 35 34 33 34 34 34 34 34 33 33 33
36 36 36 34 33 33 35 35 35 36 37 36 36 37 37 39 40 40 39 39 39 40 40 39 38 38 38 38 38 37 36 36 35 35 33 33 34 34 33 34 34 34 35 35
36 36 36 35 35 35 36 36 37 37 37 38 38 39 39 40 40 41 41 41 40 41 40 39 38 38 38 39 38 37 37 36 36 36 34 34 34 35 35 35 35 36 36 37
37 36 36 37 36 36 37 38 37 38 38 39 39 40 39 40 41 40 40 40 40 41 39 38 39 38 38 38 39 38 37 37 37 37 36 36 36 37 36 36 36 37 37 36
36 36 37 38 38 38 38 38 38 38 38 39 40 41 41 41 41 40 40 40 41 41 39 38 38 38 38 38 38 37 37 37 36 36 36 36 37 37 38 37 36 36 35 35
36 37 39 38 39 40 40 40 40 40 40 40 41 41 42 42 41 39 39 40 40 40 39 38 37 37 38 38 37 37 37 38 37 36 35 35 36 36 36 36 36 36 35 34
37 37 38 38 39 40 41 41 41 41 41 42 42 42 42 40 38 38 38 38 38 38 38 38 37 37 37 37 38 37 37 37 37 36 35 35 35 35 35 35 35 35 34 33
37 37 38 38 38 39 40 41 41 41 41 41 40 40 40 39 39 39 38 38 38 38 38 38 37 37 37 37 37 37 37 37 36 35 35 35 34 34 34 34 34 33 33 33
36 37 37 38 38 40 40 40 40 40 40 40 40 39 38 38 39 40 40 39 38 38 38 37 37 36 35 35 35 35 35 35 34 33 34 34 34 34 34 33 33 33 33 33
34 36 36 37 38 39 40 40 40 40 39 39 40 39 38 37 37 37 38 38 37 37 36 36 35 34 34 34 34 34 33 33 33 32 33 33 33 34 33 33 33 33 33 32
32 34 34 34 35 36 37 38 38 38 39 37 36 37 37 36 36 35 35 35 36 35 35 34 33 33 33 33 33 33 33 33 32 32 32 32 33 33 33 33 33 33 33 33
30 31 32 33 33 34 34 35 35 36 36 36 36 36 35 35 34 34 34 34 34 34 34 33 32 32 32 32 32 32 33 33 33 32 32 32 31 32 32 31 32 32 32 31
28 29 30 30 30 30 30 30 32 32 33 34 34 33 32 33 32 32 32 32 32 32 32 32 31 31 30 31 31 31 32 33 33 32 32 32 31 31 31 31 30 30 30 31
25 26 27 27 26 26 27 28 29 29 29 29 30 30 30 30 30 30 30 29 29 29 28 29 29 30 30 31 31 31 31 30 32 32 32 31 31 31 31 31 31 30 31 31
21 20 21 22 23 23 24 25 26 26 26 27 27 28 27 28 27 27 27 27 27 26 27 28 28 29 29 30 30 30 30 30 31 31 30 29 30 30 30 31 31 31 30 31
18 18 17 18 19 20 21 21 21 22 23 24 25 25 25 26 26 25 25 26 26 26 27 27 28 28 28 29 29 29 29 28 28 28 28 28 29 30 31 30 30 30 30 31
16 15 14 14 16 17 18 19 20 20 21 22 22 22 23 23 24 24 24 25 25 26 27 27 27 27 27 28 28 27 27 27 28 28 28 28 28 29 30 30 30 30 30 30
13 13 12 14 15 15 16 18 18 18 19 19 20 20 20 20 21 22 23 24 24 24 25 25 25 26 26 26 25 24 24 25 26 27 27 28 29 29 29 29 30 30 30 30
13 12 13 13 14 14 15 16 17 17 18 18 18 18 18 18 19 20 21 22 22 22 23 23 23 24 24 24 24 24 24 25 26 26 27 27 28 28 28 29 29 30 30 30
12 13 13 13 13 13 14 14 15 16 16 17 17 17 17 17 17 17 18 19 20 19 20 20 21 22 22 23 24 24 25 25 26 26 26 26 27 27 27 27 28 28 28 29
12 12 12 12 12 12 13 13 14 14 14 15 15 15 15 15 16 16 17 17 17 18 19 20 21 21 22 22 22 22 23 24 24 25 26 25 25 26 26 26 26 27 28 28
11 11 11 11 12 12 13 13 13 12 13 13 13 13 14 14 14 15 16 16 17 18 19 19 19 20 20 21 21 21 22 23 24 24 25 26 25 25 25 26 27 27 28 28
Wind_Direction
256 253 251 247 246 246 247 251 255 258 261 263 262 264 267 267 267 267 269 272 272 270 270 268 268 269 268 269 270 271 270 271 271 271 270 268 269 269 269 269 270 271 272 273
258 257 254 251 249 248 248 249 252 256 257 259 259 261 265 268 270 271 271 269 271 270 270 269 269 270 271 271 270 270 270 271 268 269 270 268 268 267 268 270 270 270 270 272
256 256 256 253 253 252 251 251 253 255 257 259 261 263 265 267 269 272 271 268 268 270 272 269 268 269 271 270 271 271 271 272 270 267 268 267 267 266 267 268 270 270 271 272
257 257 255 255 253 251 252 253 255 256 258 259 261 262 264 266 268 271 271 273 272 270 272 270 269 270 272 273 272 272 271 272 270 268 267 267 268 267 267 267 267 268 270 272
257 257 256 253 253 252 252 252 255 257 258 260 261 263 266 266 267 269 271 273 274 275 275 274 274 275 275 275 273 272 270 269 269 269 266 266 267 267 268 268 267 268 270 270
258 258 257 255 255 253 254 254 255 257 259 261 264 266 268 269 269 269 272 274 274 273 275 276 274 275 274 275 274 272 270 269 270 272 268 265 265 265 267 267 266 267 268 268
260 261 260 259 258 257 256 258 258 258 260 262 265 266 268 269 270 271 272 274 273 271 273 276 275 274 274 274 275 273 270 270 270 269 267 266 266 265 265 266 266 266 267 270
260 262 262 262 263 261 260 260 260 260 260 262 265 266 268 269 270 270 271 273 274 273 273 275 275 274 274 273 274 272 271 269 268 269 267 268 267 268 267 267 267 267 267 269
260 261 262 262 263 263 262 262 263 264 263 264 266 267 267 268 270 269 269 271 272 272 273 275 275 274 273 272 272 271 270 269 269 268 268 270 269 270 272 271 268 269 268 268
261 261 262 263 263 264 264 265 266 266 267 267 267 268 268 268 269 268 268 269 270 270 272 274 273 272 272 272 273 271 269 268 268 268 270 271 271 272 272 272 272 272 272 269
260 261 262 262 263 264 266 267 268 268 268 268 268 269 270 270 268 269 270 270 271 271 271 271 272 271 271 271 271 270 269 268 267 268 269 270 272 273 274 273 273 273 274 272
262 262 262 262 262 264 265 267 268 269 270 269 269 268 268 268 267 267 268 269 269 270 270 270 269 270 270 270 271 271 270 268 268 269 271 272 273 273 274 274 273 273 273 275
263 263 263 264 263 264 265 267 268 269 269 268 267 267 267 267 267 267 268 269 270 269 269 268 267 269 270 269 269 269 269 269 269 269 271 272 272 273 274 274 273 272 273 275
264 264 264 264 263 264 265 266 268 270 271 270 269 268 269 269 268 269 269 270 269 270 269 269 269 269 268 267 268 268 268 268 268 268 268 269 270 271 272 272 273 273 274 275
265 266 266 265 266 266 267 267 268 269 269 270 269 269 269 269 269 269 268 268 268 268 268 267 267 268 266 267 268 268 268 267 268 268 268 267 267 269 270 271 272 273 273 275
265 266 267 267 267 268 269 269 269 268 270 270 270 269 269 269 269 269 269 269 269 270 269 268 266 266 267 267 267 266 266 266 267 268 268 267 267 269 271 271 272 272 273 275
270 268 269 270 270 271 271 271 271 271 270 269 269 268 266 267 268 269 269 269 270 270 267 266 266 267 266 266 267 266 264 264 266 267 267 267 268 270 273 272 273 272 273 275
274 272 271 272 272 271 271 272 273 272 271 269 268 268 268 268 266 266 266 268 270 269 267 266 265 266 267 267 267 266 264 264 265 264 264 266 268 270 270 270 271 272 274 276
280 278 274 273 271 269 271 273 273 272 272 271 270 269 269 267 265 265 265 265 264 264 264 265 265 266 266 267 267 265 263 264 266 264 263 264 266 269 269 270 270 272 273 274
287 284 277 274 271 270 272 273 273 274 274 273 272 272 271 269 265 264 264 263 264 263 263 264 265 266 267 268 268 266 264 265 266 265 264 265 266 268 269 270 272 273 273 275
290 286 281 279 277 276 275 275 275 275 276 275 275 275 274 272 270 268 265 263 265 267 266 266 267 267 268 268 269 267 266 266 266 266 266 267 267 269 271 271 272 273 273 275
292 291 285 283 282 282 283 281 278 278 278 278 278 277 276 273 271 268 266 265 267 267 266 266 266 267 268 270 271 269 267 267 267 266 267 268 268 268 269 270 272 273 274 275
296 293 290 289 289 289 288 285 283 283 284 283 279 277 277 276 273 270 268 267 269 269 269 267 267 266 268 271 271 271 270 269 268 267 268 268 268 269 270 272 273 274 274 275
300 297 296 297 296 294 292 290 287 286 285 284 282 281 281 280 278 276 274 271 272 272 270 269 269 268 269 271 272 272 272 270 268 267 268 269 270 271 271 272 272 273 274 275
304 302 300 302 303 300 296 293 293 291 287 286 287 286 284 282 281 279 276 273 272 273 273 273 273 271 271 272 273 273 273 271 269 270 271 270 270 271 273 274 274 274 275 276
314 308 305 305 307 307 304 302 300 298 294 290 291 288 285 285 284 282 281 279 276 276 277 277 275 274 274 274 274 275 275 274 273 273 273 274 274 275 275 276 276 276 277 277
313 312 309 307 308 307 307 307 304 301 299 298 297 291 287 286 284 283 283 283 281 281 281 280 278 277 277 277 278 278 277 276 276 276 275 275 275 277 277 277 276 276 277 278
Height
5855 5856 5857 5858 5859 5860 5860 5859 5859 5860 5860 5861 5862 5863 5864 5864 5864 5865 5865 5865 5866 5866 5866 5867 5867 5867 5867 5868 5868 5867 5866 5866 5865 5865 5864 5864 5864 5863 5863 5863 5862 5862 5861 5860
5848 5848 5849 5851 5853 5853 5853 5853 5852 5852 5853 5855 5855 5856 5857 5857 5857 5858 5858 5859 5859 5859 5859 5858 5859 5859 5859 5859 5859 5858 5858 5857 5857 5857 5857 5856 5856 5856 5855 5855 5854 5853 5853 5852
5840 5840 5841 5843 5845 5845 5844 5844 5845 5845 5846 5847 5848 5849 5849 5849 5850 5850 5850 5850 5851 5851 5850 5849 5849 5850 5850 5850 5849 5848 5848 5848 5848 5848 5848 5848 5847 5847 5846 5846 5846 5846 5845 5845
5831 5833 5833 5838 5836 5836 5836 5836 5836 5837 5838 5838 5839 5840 5841 5841 5842 5842 5842 5841 5841 5842 5841 5841 5840 5840 5839 5839 5839 5838 5838 5838 5837 5837 5837 5837 5837 5838 5837 5837 5837 5836 5836 5836
5821 5822 5824 5827 5828 5827 5827 5827 5828 5829 5829 5830 5831 5831 5832 5833 5833 5833 5833 5832 5832 5832 5832 5832 5831 5831 5830 5829 5828 5827 5827 5827 5826 5826 5827 5827 5828 5828 5827 5827 5826 5826 5826 5826
5811 5812 5814 5819 5818 5818 5819 5818 5820 5820 5821 5822 5822 5823 5824 5823 5823 5823 5823 5822 5822 5822 5822 5822 5821 5821 5820 5819 5818 5817 5817 5817 5816 5817 5817 5818 5818 5818 5817 5816 5815 5816 5816 5816
5802 5802 5804 5807 5808 5809 5810 5810 5811 5812 5812 5813 5813 5814 5814 5813 5813 5813 5812 5812 5811 5811 5811 5811 5811 5810 5810 5809 5808 5808 5808 5807 5807 5807 5806 5807 5807 5807 5807 5807 5806 5807 5806 5806
5792 5793 5796 5796 5797 5798 5799 5800 5800 5801 5802 5803 5803 5803 5803 5803 5802 5802 5801 5801 5800 5800 5800 5800 5799 5799 5799 5799 5798 5798 5797 5797 5797 5797 5796 5795 5796 5797 5797 5797 5796 5796 5796 5795
5783 5785 5784 5785 5786 5786 5787 5788 5789 5790 5791 5791 5792 5792 5792 5792 5791 5790 5790 5789 5789 5788 5788 5788 5787 5788 5788 5788 5787 5787 5787 5787 5786 5786 5786 5786 5786 5786 5786 5785 5785 5784 5784 5784
5772 5773 5773 5774 5775 5775 5776 5777 5778 5778 5779 5780 5780 5779 5780 5780 5779 5778 5778 5777 5777 5776 5775 5775 5774 5775 5776 5776 5776 5776 5776 5775 5775 5775 5775 5774 5774 5775 5775 5775 5774 5773 5773 5773
5761 5763 5763 5763 5764 5765 5765 5766 5766 5767 5767 5767 5767 5767 5767 5767 5766 5766 5766 5766 5765 5763 5763 5763 5763 5764 5764 5764 5764 5764 5764 5764 5764 5764 5764 5764 5764 5764 5763 5763 5763 5763 5762 5761
5751 5752 5752 5753 5754 5754 5754 5754 5755 5755 5755 5755 5754 5754 5754 5753 5753 5753 5753 5753 5753 5753 5752 5752 5752 5753 5753 5753 5753 5753 5753 5753 5753 5753 5753 5753 5753 5753 5753 5752 5752 5752 5752 5751
5740 5740 5740 5741 5742 5742 5742 5742 5742 5742 5743 5742 5741 5741 5741 5741 5740 5740 5740 5741 5741 5741 5741 5741 5740 5741 5741 5741 5742 5742 5742 5742 5742 5742 5742 5742 5743 5743 5743 5742 5741 5741 5741 5740
5728 5729 5729 5730 5730 5730 5730 5730 5730 5730 5730 5729 5729 5729 5729 5729 5729 5728 5728 5728 5728 5728 5729 5728 5729 5730 5730 5730 5731 5731 5731 5731 5732 5732 5732 5732 5733 5733 5733 5732 5732 5731 5731 5730
5718 5717 5718 5718 5718 5718 5718 5719 5719 5719 5718 5717 5717 5717 5717 5717 5717 5717 5716 5716 5716 5717 5717 5717 5718 5719 5719 5719 5720 5720 5720 5721 5721 5721 5722 5722 5722 5723 5722 5722 5722 5722 5721 5720
5707 5706 5706 5706 5706 5706 5706 5707 5707 5707 5706 5705 5704 5705 5705 5705 5705 5705 5704 5705 5705 5706 5706 5706 5707 5707 5708 5708 5709 5709 5710 5710 5710 5711 5711 5712 5712 5712 5712 5712 5712 5712 5711 5710
5697 5696 5696 5696 5696 5695 5695 5695 5695 5695 5694 5694 5693 5693 5693 5694 5694 5693 5693 5694 5694 5695 5695 5695 5696 5697 5697 5698 5698 5699 5699 5700 5700 5700 5701 5702 5702 5703 5702 5702 5702 5702 5701 5700
5687 5686 5685 5685 5685 5685 5684 5684 5684 5684 5683 5683 5682 5681 5682 5683 5683 5683 5683 5683 5683 5684 5685 5685 5686 5686 5687 5687 5688 5689 5690 5690 5690 5691 5691 5691 5692 5692 5692 5692 5692 5692 5691 5690
5678 5676 5676 5675 5675 5675 5675 5674 5674 5674 5673 5672 5672 5672 5672 5672 5672 5673 5673 5673 5673 5674 5675 5676 5677 5677 5678 5678 5679 5679 5680 5680 5680 5680 5681 5681 5681 5682 5682 5682 5682 5681 5681 5680
5671 5669 5668 5668 5667 5667 5667 5667 5666 5665 5665 5664 5663 5663 5662 5662 5662 5663 5664 5664 5664 5664 5665 5667 5668 5669 5669 5669 5669 5669 5669 5670 5671 5671 5671 5671 5671 5671 5672 5671 5671 5671 5671 5670
5665 5663 5662 5662 5661 5661 5660 5660 5659 5658 5657 5656 5655 5654 5654 5654 5654 5654 5655 5655 5656 5656 5657 5658 5659 5659 5659 5659 5659 5659 5660 5660 5660 5660 5660 5661 5661 5661 5662 5661 5661 5661 5661 5660
5660 5659 5658 5657 5656 5655 5654 5654 5653 5652 5650 5649 5648 5648 5647 5647 5647 5647 5647 5648 5648 5648 5649 5649 5650 5650 5650 5650 5650 5650 5650 5650 5651 5651 5651 5651 5651 5651 5652 5652 5651 5651 5651 5650
5656 5655 5654 5653 5652 5651 5649 5648 5647 5646 5645 5643 5642 5641 5641 5640 5640 5639 5640 5640 5640 5640 5640 5641 5641 5641 5641 5641 5641 5641 5641 5641 5641 5641 5641 5641 5642 5642 5642 5642 5642 5641 5640 5640
5653 5651 5650 5649 5647 5646 5645 5643 5642 5641 5639 5638 5636 5635 5635 5634 5633 5632 5632 5632 5632 5632 5632 5632 5633 5633 5633 5633 5632 5632 5632 5632 5633 5632 5632 5632 5633 5633 5632 5632 5632 5631 5630 5629
5649 5648 5646 5645 5643 5642 5640 5639 5637 5636 5634 5633 5631 5630 5629 5628 5627 5626 5625 5625 5625 5625 5625 5625 5625 5625 5625 5625 5625 5624 5624 5624 5624 5623 5623 5623 5623 5623 5623 5622 5622 5621 5620 5620
5646 5645 5643 5642 5640 5639 5637 5635 5633 5632 5630 5628 5627 5625 5624 5623 5621 5620 5620 5619 5619 5619 5618 5618 5617 5617 5617 5617 5616 5616 5615 5615 5615 5614 5614 5614 5614 5614 5613 5613 5612 5611 5610 5609
5644 5642 5641 5639 5637 5635 5634 5632 5630 5628 5626 5625 5623 5621 5620 5618 5617 5616 5615 5614 5613 5613 5612 5611 5611 5610 5610 5609 5608 5608 5607 5607 5606 5606 5605 5605 5604 5604 5603 5603 5602 5602 5600 5599